Zurück zum Katalog

STARLINK-11122

AktivKommunikationVLEO
NORAD 60040·PAYLOAD·🇺🇸 United States

Gestartet Jun 8, 2024 von Vandenberg Space Force Base

Loading…

Nächste Überflüge (nächste 24 Stunden)

TLE

AktuellSource: CelesTrak SupGP

Epoche: Sep 14, 2026, 20:50 UTC

1 60040C 24112C   26257.86854167  .00055963  00000+0  46106-3 0  2571
2 60040  53.1571  53.9029 0001139  82.0662 175.0436 15.69677522    17

Verfolge STARLINK-11122 in Echtzeit mit AllMySat

Download on the App Store